Wind_Speed
49 49 48 50 54 55 54 55 55 55 55 53 50 47 46 44 44 43 42 40 39 38 37 36 36 35 35 34 34 34 34 34 34 35 36 37 38 39 40 41 43 45 46
50 49 47 48 50 53 54 53 54 54 53 52 50 48 46 44 44 42 41 40 38 37 37 37 36 35 35 35 34 33 34 34 34 35 36 37 38 39 40 42 44 45 45
49 48 47 49 50 52 53 52 53 53 52 51 49 47 45 44 44 43 41 40 38 37 37 36 36 35 34 34 33 33 34 34 35 36 37 37 38 39 41 42 44 44 45
47 47 47 48 50 52 51 51 51 52 52 51 49 47 43 43 43 43 41 40 38 37 36 35 35 34 33 33 33 33 32 33 35 35 36 37 38 40 41 43 43 44 45
45 47 48 47 48 49 51 50 50 50 50 50 49 47 44 42 41 40 40 39 37 36 35 34 33 33 33 33 32 32 32 33 35 35 35 37 39 41 42 42 43 44 45
44 46 47 46 47 49 50 51 50 50 49 48 47 47 44 41 39 38 39 38 36 35 34 33 33 33 32 32 31 31 32 34 34 35 35 37 39 40 41 42 43 44 45
43 45 46 46 46 48 49 50 51 50 49 48 47 45 43 41 39 39 39 38 37 36 34 33 33 33 32 31 31 32 33 34 34 35 36 37 38 39 41 41 42 44 45
41 46 46 44 45 48 49 50 49 49 48 47 46 43 41 41 41 40 39 39 39 37 35 34 33 31 31 31 32 32 32 32 33 34 36 37 38 38 39 41 42 43 45
40 43 45 44 44 46 47 49 50 49 47 46 45 43 42 41 40 39 38 38 38 36 34 33 32 31 30 31 32 32 31 32 33 34 35 36 37 38 39 41 42 43 44
40 42 43 42 43 45 46 46 47 48 47 46 45 43 41 40 40 39 38 38 37 35 35 34 32 31 31 31 31 31 30 31 33 34 35 36 37 38 40 41 42 43 45
41 42 42 41 43 44 45 45 46 47 47 47 45 44 41 40 40 39 38 37 36 35 34 33 32 32 32 30 30 30 30 32 32 33 34 35 36 37 39 40 41 43 45
40 41 41 41 43 44 45 45 45 46 46 45 43 43 42 40 39 38 38 37 35 34 34 33 33 32 31 30 29 30 30 31 31 32 33 34 36 38 39 40 41 43 45
38 40 41 41 43 44 44 44 45 44 44 43 42 41 40 38 38 38 37 36 35 34 33 32 32 31 30 29 29 29 30 30 31 31 33 34 36 37 39 40 41 44 45
38 40 40 40 42 43 44 44 43 44 44 42 41 39 38 37 37 37 36 35 35 34 33 32 30 29 29 29 29 29 29 30 30 32 32 33 35 37 38 39 41 43 44
38 39 41 39 40 42 43 44 43 42 43 42 40 38 36 34 33 34 35 34 33 32 31 30 28 27 27 29 29 28 28 29 30 31 32 33 35 36 37 39 40 42 43
37 38 39 40 41 42 43 43 42 42 42 42 40 39 37 34 33 33 33 32 30 29 29 29 28 27 27 27 27 27 27 29 29 30 31 32 34 36 37 38 39 41 43
35 36 36 38 40 41 43 43 42 42 43 43 41 40 38 36 34 32 32 31 30 28 27 26 25 25 25 25 25 27 28 28 28 29 30 32 33 35 36 37 39 40 42
35 35 36 37 38 39 40 41 41 41 41 42 41 40 39 37 35 33 32 31 29 28 27 26 25 25 24 24 25 26 27 27 28 29 30 31 32 34 36 37 38 40 41
35 35 35 37 38 39 39 40 41 41 40 40 39 38 38 36 35 34 33 31 29 28 27 26 25 24 23 24 26 26 26 27 28 28 29 30 32 34 36 37 38 39 40
34 35 36 37 37 38 39 40 41 41 41 40 39 38 37 36 34 33 31 30 29 27 26 25 25 25 25 25 25 25 26 26 27 27 28 30 32 34 35 36 37 38 39
33 34 35 36 37 38 40 40 40 39 40 39 38 38 37 36 34 33 31 29 28 27 26 25 25 24 25 25 25 26 25 25 26 27 28 30 32 34 35 35 36 37 38
31 32 34 36 36 38 39 39 40 39 39 39 38 38 37 35 34 32 30 29 27 27 26 25 24 24 25 25 25 24 23 24 25 26 28 31 32 33 34 34 35 36 37
31 31 32 35 36 37 38 39 39 39 38 38 38 37 36 35 34 31 30 28 26 25 24 24 24 24 23 23 22 21 22 23 24 26 28 30 31 32 33 33 34 35 36
30 31 32 33 35 37 37 38 39 39 38 38 37 36 36 35 33 31 29 28 26 24 23 23 23 22 21 20 20 20 21 22 23 25 27 29 30 31 31 31 32 33 35
29 31 32 33 34 35 37 38 38 38 38 37 36 35 34 33 32 30 28 27 25 23 22 22 21 19 18 18 18 18 19 21 23 25 26 28 28 29 29 30 31 33 35
27 29 31 33 34 35 36 37 37 37 38 36 35 34 34 32 30 28 27 25 23 22 20 19 18 17 17 16 16 17 19 21 23 24 25 26 27 27 28 30 31 32 34
Wind_Direction
216 216 216 217 218 219 220 220 222 224 225 225 228 231 232 233 235 237 239 242 244 247 249 252 256 259 263 267 272 276 279 283 286 290 294 297 299 301 303 305 307 309 310
215 215 215 217 219 219 220 221 222 224 225 226 228 230 232 234 235 237 239 241 244 246 248 252 256 261 265 268 272 276 279 283 287 290 294 297 300 302 304 306 308 309 310
215 215 216 217 219 220 220 221 223 224 225 226 228 230 233 234 236 238 239 241 244 246 249 253 258 261 266 268 271 276 279 283 288 291 294 297 300 302 305 307 308 310 311
216 216 216 217 218 219 220 220 222 223 225 225 228 229 232 234 236 238 239 241 244 247 250 254 257 261 265 269 272 276 279 284 288 293 295 298 301 304 305 307 308 310 311
219 218 217 217 217 218 218 219 221 223 224 225 228 229 231 234 235 237 238 240 244 248 249 252 256 261 265 269 272 275 279 284 289 293 296 299 302 304 305 307 309 310 312
220 219 219 219 217 217 219 221 223 223 222 225 226 228 230 232 234 235 237 239 243 247 249 253 258 261 264 268 271 275 280 286 290 293 296 300 302 304 306 308 309 311 312
221 220 220 219 218 217 218 221 222 222 223 224 225 226 228 230 232 234 237 240 244 247 249 253 257 260 263 267 272 277 282 287 290 293 297 301 302 305 306 309 311 312 314
221 221 221 220 220 220 219 220 220 220 221 222 224 225 227 230 232 234 236 240 244 246 250 253 257 261 265 270 274 278 282 287 289 294 297 300 302 305 307 310 312 313 315
220 220 220 221 221 221 220 220 220 220 223 223 222 225 229 231 232 234 235 239 242 245 249 252 255 261 265 270 274 277 281 285 289 294 297 299 302 305 309 312 313 314 316
218 219 219 220 219 219 218 219 219 221 223 224 224 225 229 230 231 233 235 238 241 245 248 252 256 260 265 270 273 277 280 285 289 293 296 299 304 307 310 312 313 315 317
219 218 219 218 217 217 217 219 219 221 223 224 225 225 228 230 231 232 234 238 241 245 248 252 256 259 264 268 271 275 280 285 289 293 296 301 305 308 311 313 314 316 317
221 219 218 217 215 213 215 217 218 220 223 224 225 226 228 230 231 233 234 238 241 245 248 252 256 259 263 267 271 277 282 286 290 293 297 301 305 309 311 313 315 317 318
220 218 216 214 213 213 214 215 217 217 219 221 224 227 228 229 230 231 233 238 240 243 248 252 254 258 262 267 273 279 284 287 290 294 298 302 305 309 312 313 316 318 319
221 218 215 214 214 215 215 216 218 218 219 219 221 223 225 227 228 228 232 236 240 243 245 248 251 257 261 267 272 279 283 287 291 296 299 303 307 310 312 313 316 319 320
219 217 216 214 214 214 215 216 216 218 218 219 219 221 222 224 226 228 231 234 237 240 242 245 250 256 262 267 273 278 283 287 292 296 300 304 307 310 313 315 318 320 321
217 216 217 217 215 214 215 215 215 217 217 218 220 220 221 224 225 226 228 228 231 235 240 246 252 257 263 269 272 277 283 287 292 296 300 304 308 312 314 317 319 321 322
217 216 215 215 214 214 214 214 214 216 217 218 218 219 221 223 224 226 228 229 232 236 241 245 251 257 264 269 273 278 283 287 291 295 301 306 310 313 315 318 320 321 323
217 216 216 215 214 212 212 212 212 213 214 216 216 217 219 221 223 224 226 229 233 238 242 245 250 255 260 266 274 280 284 287 291 297 302 307 311 314 316 318 319 321 324
218 216 216 215 213 211 210 210 210 209 211 213 213 215 217 220 220 222 226 229 234 239 242 244 248 252 259 266 275 280 283 288 293 297 303 307 311 315 317 318 320 322 324
218 218 217 214 213 210 209 209 210 210 211 211 212 213 215 217 219 223 225 229 234 237 239 242 247 252 258 266 273 279 285 290 295 299 304 309 313 316 318 319 321 323 326
217 216 214 212 211 210 208 208 208 208 210 211 212 213 215 217 219 222 225 229 232 233 235 240 246 252 260 267 273 280 285 290 295 300 305 310 313 316 318 320 322 325 326
214 212 211 209 207 206 206 206 207 208 209 210 211 213 214 217 218 218 223 225 227 231 235 239 246 254 262 269 275 280 284 290 296 300 306 311 314 317 319 321 323 325 327
214 212 209 207 204 204 205 206 206 208 208 209 210 211 213 214 216 219 221 222 225 229 234 241 247 254 262 269 274 278 285 291 297 302 308 312 314 317 320 322 324 325 328
211 210 208 205 205 205 204 205 206 206 207 208 208 209 210 213 215 218 218 220 224 230 236 240 248 255 263 268 273 278 285 292 298 303 308 312 315 318 320 322 325 327 329
209 208 207 206 206 204 204 203 203 204 204 204 205 206 208 212 214 216 218 220 224 229 234 241 247 253 260 267 274 281 287 295 301 304 309 313 316 319 321 323 326 328 331
206 205 205 206 205 203 202 201 200 200 199 200 203 205 208 211 212 212 215 219 223 228 234 238 241 249 260 270 277 285 292 299 304 308 312 316 318 320 322 324 327 330 333
Height
5561 5570 5578 5587 5596 5605 5615 5625 5634 5643 5652 5660 5668 5676 5683 5689 5695 5700 5706 5711 5715 5719 5722 5725 5728 5730 5731 5732 5733 5734 5734 5733 5732 5730 5728 5725 5722 5718 5715 5710 5706 5700 5695
5554 5562 5570 5579 5588 5597 5607 5616 5626 5634 5642 5651 5660 5668 5675 5681 5686 5692 5698 5703 5707 5711 5715 5718 5720 5722 5724 5725 5726 5726 5726 5725 5724 5722 5720 5717 5714 5711 5707 5702 5697 5692 5686
5548 5555 5563 5571 5580 5590 5599 5608 5617 5625 5634 5643 5652 5659 5666 5673 5678 5684 5690 5695 5700 5704 5707 5710 5712 5714 5716 5717 5718 5718 5718 5717 5716 5715 5712 5709 5706 5702 5698 5694 5689 5683 5677
5541 5548 5556 5564 5573 5582 5591 5600 5608 5617 5625 5635 5643 5651 5658 5664 5670 5676 5682 5687 5692 5696 5699 5702 5705 5707 5708 5709 5710 5710 5710 5709 5708 5707 5704 5701 5698 5694 5690 5686 5680 5675 5669
5534 5541 5549 5557 5565 5574 5583 5592 5600 5608 5617 5626 5634 5642 5649 5656 5662 5668 5674 5680 5684 5688 5691 5694 5697 5699 5700 5701 5702 5703 5702 5702 5700 5699 5696 5693 5690 5686 5682 5677 5672 5666 5660
5527 5535 5542 5550 5558 5566 5575 5584 5592 5600 5609 5618 5626 5634 5641 5648 5655 5661 5667 5672 5676 5680 5683 5687 5689 5691 5692 5693 5694 5695 5695 5694 5692 5691 5688 5685 5682 5678 5673 5668 5663 5657 5652
5520 5527 5535 5542 5550 5559 5567 5576 5584 5593 5601 5609 5617 5625 5633 5640 5647 5653 5658 5664 5668 5672 5676 5679 5681 5683 5684 5686 5686 5687 5687 5686 5685 5683 5680 5677 5673 5670 5665 5660 5654 5648 5641
5513 5520 5528 5535 5543 5550 5559 5567 5576 5585 5593 5601 5610 5618 5625 5632 5638 5644 5650 5655 5660 5664 5668 5671 5674 5675 5677 5678 5679 5679 5679 5678 5676 5675 5672 5669 5665 5661 5656 5651 5645 5639 5632
5506 5512 5520 5528 5535 5543 5551 5560 5569 5577 5585 5594 5602 5610 5617 5624 5630 5636 5642 5647 5652 5657 5660 5663 5666 5668 5669 5670 5671 5671 5671 5670 5668 5666 5664 5661 5657 5652 5647 5642 5637 5630 5624
5498 5505 5513 5520 5527 5535 5544 5552 5561 5569 5578 5586 5594 5602 5609 5616 5622 5628 5634 5639 5644 5649 5652 5656 5659 5660 5662 5662 5663 5664 5663 5662 5660 5658 5656 5652 5649 5644 5639 5634 5628 5622 5615
5491 5498 5505 5512 5520 5528 5536 5545 5553 5562 5571 5579 5587 5595 5602 5608 5614 5620 5626 5631 5636 5641 5644 5648 5650 5652 5654 5655 5656 5656 5655 5654 5652 5650 5648 5644 5640 5636 5631 5625 5619 5613 5606
5483 5491 5498 5505 5513 5521 5529 5537 5546 5554 5563 5571 5578 5586 5593 5600 5606 5612 5618 5623 5628 5633 5637 5640 5642 5645 5647 5648 5648 5648 5647 5646 5645 5643 5640 5637 5633 5628 5622 5617 5611 5604 5597
5476 5483 5490 5498 5505 5513 5521 5530 5538 5547 5555 5563 5571 5578 5586 5592 5598 5604 5610 5615 5620 5625 5629 5632 5634 5636 5639 5640 5641 5640 5640 5639 5637 5635 5632 5629 5625 5620 5614 5609 5602 5595 5588
5469 5476 5483 5490 5497 5506 5514 5522 5531 5539 5548 5556 5563 5570 5578 5584 5590 5596 5602 5607 5612 5616 5620 5624 5626 5628 5631 5632 5633 5633 5632 5631 5630 5627 5624 5621 5617 5612 5607 5601 5595 5588 5580
5461 5469 5476 5483 5490 5499 5507 5516 5524 5533 5541 5549 5556 5564 5571 5577 5584 5590 5595 5600 5604 5609 5613 5616 5618 5621 5623 5625 5626 5625 5625 5624 5622 5620 5617 5613 5609 5604 5599 5593 5587 5580 5573
5455 5462 5469 5476 5484 5492 5500 5508 5517 5526 5533 5541 5549 5557 5564 5570 5576 5582 5587 5592 5596 5601 5605 5608 5611 5614 5616 5618 5618 5618 5617 5616 5614 5612 5609 5605 5601 5596 5591 5585 5579 5573 5566
5448 5455 5462 5469 5477 5484 5493 5501 5510 5518 5525 5534 5541 5549 5556 5562 5568 5574 5579 5584 5589 5593 5598 5601 5604 5607 5609 5610 5611 5610 5610 5608 5607 5604 5601 5598 5593 5589 5583 5578 5572 5566 5558
5441 5448 5454 5462 5469 5477 5485 5494 5502 5510 5518 5526 5534 5541 5548 5555 5561 5567 5572 5577 5582 5587 5591 5594 5597 5600 5602 5603 5603 5603 5602 5601 5599 5597 5594 5590 5586 5581 5576 5571 5565 5558 5551
5434 5441 5447 5454 5461 5469 5477 5486 5494 5503 5511 5519 5527 5534 5541 5547 5553 5559 5565 5571 5576 5580 5584 5588 5591 5593 5594 5596 5596 5596 5595 5594 5592 5590 5587 5583 5579 5574 5569 5564 5557 5551 5544
5427 5434 5440 5447 5454 5461 5469 5478 5487 5496 5504 5512 5520 5527 5534 5541 5547 5553 5559 5564 5569 5574 5578 5581 5584 5586 5588 5589 5589 5588 5588 5587 5585 5582 5579 5576 5572 5567 5562 5556 5550 5544 5537
5421 5427 5433 5440 5447 5455 5463 5472 5481 5489 5498 5506 5513 5520 5527 5535 5541 5547 5553 5558 5563 5567 5571 5574 5577 5579 5580 5581 5582 5582 5581 5579 5578 5575 5572 5569 5565 5560 5555 5549 5543 5537 5531
5414 5420 5427 5434 5441 5449 5458 5466 5475 5483 5491 5499 5506 5513 5521 5528 5535 5541 5546 5551 5556 5560 5564 5567 5570 5572 5573 5574 5575 5575 5574 5572 5571 5568 5565 5562 5557 5553 5548 5542 5537 5531 5524
5409 5415 5421 5428 5436 5444 5452 5460 5469 5477 5485 5493 5501 5508 5515 5522 5529 5534 5540 5545 5549 5553 5557 5560 5563 5565 5566 5567 5568 5567 5567 5566 5564 5562 5559 5555 5551 5546 5541 5536 5530 5525 5519
5403 5409 5416 5423 5431 5439 5447 5455 5463 5471 5480 5487 5495 5502 5510 5516 5522 5528 5534 5539 5543 5547 5551 5554 5557 5558 5560 5560 5561 5560 5560 5559 5557 5555 5552 5548 5544 5539 5535 5530 5525 5519 5513
5398 5404 5411 5418 5426 5433 5441 5449 5457 5466 5474 5482 5490 5497 5504 5511 5517 5523 5528 5533 5537 5541 5545 5548 5550 5552 5554 5554 5554 5554 5553 5552 5550 5548 5545 5542 5538 5533 5529 5524 5519 5513 5507
5394 5400 5406 5414 5421 5429 5437 5444 5452 5461 5469 5478 5485 5493 5500 5506 5512 5518 5523 5528 5532 5536 5540 5542 5545 5547 5548 5549 5549 5548 5547 5546 5544 5542 5539 5536 5532 5528 5523 5519 5513 5508 5502